Location: Unspecified
(0.0000°N, 0.0000°E)
Time: 08:14:27
(UTC+00:00)

Explorer 11/Cluster Stage 4 - Pass Details

Date: 16 July 2020
Orbit: 467 x 1259 km, 28.8° (Epoch: 03 August)

Event Time Altitude Azimuth Distance (km) Brightness Sun altitude
Rises 15:56:51 0° 315° (NW) 3,844 11.1 29.9°
Reaches altitude 10° 15:59:39 10° 322° (NW) 2,986 10.7 29.3°
Maximum altitude 16:06:45 42° 31° (NNE) 1,670 8.5 27.7°
Drops below altitude 10° 16:14:26 10° 99° (E) 3,230 9.3 25.9°
Sets 16:17:33 0° 105° (ESE) 4,184 9.7 25.2°
